Regional Weather Roundup
Issued by NWS

Home | Current Version | Previous Version | Graphics & Text | Print | Product List | Glossary On
Versions: 1 2 3 4 5 6 7 8 9 10 11 12 13 14 15 16 17 18 19 20 21 22 23 24 25 26 27 28 29 30 31 32 33 34 35 36 37 38 39 40 41 42 43 44 45 46 47
000
ASUS45 KBOI 211610
RWRID
WEATHER ROUNDUP FOR IDAHO
NATIONAL WEATHER SERVICE BOISE ID
1000 AM MDT TUE OCT 21 2014

NOTE: "FAIR" INDICATES FEW OR NO CLOUDS BELOW 12000 FEET
WITH NO SIGNIFICANT WEATHER AND/OR OBSTRUCTIONS TO VISIBILITY

IDZ012-014-211700-
SOUTHWEST IDAHO


CITY           SKY/WX    TMP DP  RH WIND       PRES   REMARKS
BOISE          LGT RAIN  48  45  89 S7        29.99R
CALDWELL       CLOUDY    50  39  66 S3        30.01R
MOUNTAIN HOME  LGT RAIN  49  49  99 NW2       30.00R
$$

IDZ016-017-211700-
SOUTHCENTRAL IDAHO


CITY           SKY/WX    TMP DP  RH WIND       PRES   REMARKS
BURLEY         PTSUNNY   42  37  82 SW10      30.02R
JEROME         MOSUNNY   44  41  89 S9        30.02R
TWIN FALLS     SUNNY     47  38  71 S12       30.01R
$$

IDZ019>023-211700-
SOUTHEAST IDAHO


CITY           SKY/WX    TMP DP  RH WIND       PRES   REMARKS
IDAHO FALLS    CLOUDY    44  37  76 SW29G37   29.99R
POCATELLO      LGT RAIN  44  38  79 SW18G29   30.03R
REXBURG        CLOUDY    44  39  82 S23G33    29.94R
$$

IDZ006-010-011-018-031-032-211700-
CENTRAL IDAHO MOUNTAINS


CITY           SKY/WX    TMP DP  RH WIND       PRES   REMARKS
MCCALL         LGT RAIN  39  37  92 SW6       29.94R WCI  35
HAILEY         PTSUNNY   43  37  81 SW5       29.99R
STANLEY          N/A     35  33  92 S6        29.98R WCI  30
SALMON         CLOUDY    46  43  87 E6        29.84R
CHALLIS        CLOUDY    45  39  79 SE9       29.88R
$$

IDZ002-004-006-007-026-211700-
NORTHERN IDAHO


CITY           SKY/WX    TMP DP  RH WIND       PRES   REMARKS
LEWISTON       CLOUDY    52  49  89 CALM      29.93R
LOWELL           N/A     50  49  96 CALM      29.94R
COEUR D`ALENE  CLOUDY    48  45  87 W9        29.89R
MULLAN PASS    LGT RAIN  36  36 100 VRB6      29.87S VSB 1/4 WCI  31
$$



USA.gov is the U.S. government's official web portal to all federal, state and local government web resources and services.